Location: Kosice
(0.0000°N, 21.2500°E)
Time: 10:25:27
(UTC+02:00)

Cosmos 2297 - Visible Passes

Search period start: 11 May 2021 00:00
Search period end: 21 May 2021 00:00
Orbit: 837 x 857 km, 71.0° (Epoch: 10 May)

Date Brightness Start Highest point End Pass type
(mag) Time Alt. Az. Time Alt. Az. Time Alt. Az.
18 May 4.7 19:49:02 10° SSE 19:55:54 28° ENE 19:59:14 10° NE visible
18 May 6.2 21:37:04 16° W 21:38:01 17° WNW 21:41:35 10° NW visible
19 May 4.3 19:35:41 10° SSE 19:40:46 32° ESE 19:45:47 10° NE visible
19 May 6.2 21:20:57 10° WSW 21:24:37 17° WNW 21:28:17 10° NW visible
20 May 4.4 19:22:20 10° SSE 19:27:21 31° ESE 19:32:20 10° NE visible
20 May 6.2 21:07:27 10° WSW 21:11:14 18° WNW 21:14:59 10° NNW visible
